Home > Weather > Kfar Saba > Past weeks

Flag for Israel Weather for the Past 2 Weeks in Kfar Saba, Israel

Now
70 °F

Clear.


Feels Like: 70 °F
Forecast: 67 / 83 °F
Wind: 3 mph from North

Location: Dov Airport

Current Time: May 2, 2016 at 11:16:11 PM

Latest Report: May 2, 2016 at 9:50 PM


Visibility: 10 mi

Pressure: 29.92 "Hg

Humidity: 83%

Dew Point: 64 °F

Location of Kfar SabaLocation

Historic Weather in Kfar Saba — Graph

°F

Kfar Saba Temperature Yesterday

Maximum temperature yesterday: 86 °F (at 8:50 AM)
Minimum temperature yesterday: 70 °F (at 5:50 AM)
Average temperature yesterday: 75 °F

High & Low Weather Summary for the Past Weeks

 TemperatureHumidityPressure
High95 °F (Apr 26, 10:50 AM)94% (Apr 23, 6:00 AM)30.07 "Hg (Apr 23, 6:00 AM)
Low59 °F (Apr 18, 5:00 AM)16% (Apr 26, 10:50 AM)29.56 "Hg (Apr 25, 5:00 AM)
Average72 °F67%29.89 "Hg
* Reported Apr 17 9:50 PM — May 2 9:50 PM, Kfar Saba, Weather by CustomWeather, © 2016

Note: Actual official high and low records may vary slightly from our data, if they occured in-between our weather recording intervals... More about our weather records

Advertising

Kfar Saba Weather History for the Previous 24 Hours

Scroll right to see more
 ConditionsComfort  
Time TempWeatherWind HumidityBarometerVisibility
9:50 PM
Mon, May 2
70 °FClear.3 mph83%29.92 "Hg10 mi
8:50 PM70 °FClear.5 mph83%29.92 "Hg10 mi
7:50 PM70 °FSunny.6 mph83%29.92 "Hg10 mi
6:50 PM72 °FPassing clouds.9 mph78%29.92 "HgN/A
5:50 PM73 °FSunny.8 mph78%29.89 "Hg10 mi
4:50 PM73 °FSunny.12 mph78%29.89 "Hg10 mi
3:50 PM73 °FSunny.13 mph74%29.86 "Hg10 mi
2:50 PM75 °FSunny.9 mph69%29.89 "Hg10 mi
1:50 PM75 °FSunny.15 mph69%29.89 "Hg10 mi
12:50 PM75 °FPassing clouds.13 mph69%29.89 "HgN/A
11:50 AM75 °FPassing clouds.15 mph69%29.89 "HgN/A
10:50 AM75 °FScattered clouds.14 mph65%29.92 "HgN/A
9:50 AM73 °FPassing clouds.13 mph69%29.89 "HgN/A
8:50 AM72 °FPartly sunny.12 mph73%29.89 "HgN/A
7:50 AM70 °FScattered clouds.6 mph78%29.89 "HgN/A
6:50 AM70 °FPartly cloudy.10 mph78%29.86 "HgN/A
5:50 AM68 °FPassing clouds.12 mph83%29.83 "HgN/A
11:50 PM
Sun, May 1
72 °FPassing clouds.14 mph78%29.86 "HgN/A
Weather by CustomWeather, © 2016

See weather overviewHow to use our weather pages